EWG8213 ESSA-EDDB

Flight info

Callsign EWG8213
Flight time 1h 34m
Altitude 36000
Route PETEV N872 ELPAX DCT BIKRU/N0449F370 DCT RODEP T280 KETAP KETAP1R
Aircraft A320/M-SDE3FGHIRWY/LB1

Departure

Time 2026-05-04 18:32
Airport Stockholm-Arlanda Airport (ESSA)

Arrival

Time 2026-05-04 20:07
Airport Berlin Brandenburg Airport (EDDB)
Time Latitude Longitude Altitude Speed Heading
2026-05-04 18:03 59.65397 17.93534 138 ft 0 kts 75°
2026-05-04 18:23 59.65394 17.93517 137 ft 4 kts 74°
2026-05-04 18:23 59.65386 17.93467 137 ft 4 kts 66°
2026-05-04 18:24 59.65373 17.93420 138 ft 4 kts 50°
2026-05-04 18:24 59.65355 17.93391 138 ft 4 kts 360°
2026-05-04 18:24 59.65345 17.93393 138 ft 1 kts 345°
2026-05-04 18:24 59.65344 17.93394 138 ft 0 kts 345°
2026-05-04 18:27 59.65348 17.93392 137 ft 1 kts 346°
2026-05-04 18:27 59.65376 17.93380 137 ft 7 kts 348°
2026-05-04 18:27 59.65425 17.93354 137 ft 11 kts 345°
2026-05-04 18:28 59.65508 17.93337 137 ft 11 kts 355°
2026-05-04 18:28 59.65577 17.93302 138 ft 10 kts 333°
2026-05-04 18:28 59.65601 17.93189 138 ft 10 kts 264°
2026-05-04 18:28 59.65584 17.93045 138 ft 12 kts 256°
2026-05-04 18:29 59.65564 17.92882 138 ft 13 kts 256°
2026-05-04 18:29 59.65540 17.92705 138 ft 14 kts 254°
2026-05-04 18:29 59.65557 17.92528 138 ft 15 kts 320°
2026-05-04 18:29 59.65656 17.92468 138 ft 15 kts 345°
2026-05-04 18:30 59.65814 17.92439 138 ft 8 kts 11°
2026-05-04 18:30 59.65874 17.92451 138 ft 9 kts 351°
2026-05-04 18:30 59.65910 17.92371 139 ft 8 kts 288°
2026-05-04 18:31 59.65921 17.92258 141 ft 8 kts 279°
2026-05-04 18:31 59.65925 17.92154 145 ft 9 kts 258°
2026-05-04 18:31 59.65868 17.92099 145 ft 12 kts 189°
2026-05-04 18:31 59.65621 17.92012 144 ft 70 kts 191°
2026-05-04 18:32 59.64937 17.91758 143 ft 128 kts 190°
2026-05-04 18:32 59.63931 17.91384 364 ft 152 kts 193°
2026-05-04 18:32 59.62894 17.90976 1005 ft 155 kts 197°
2026-05-04 18:32 59.61808 17.90442 1407 ft 170 kts 210°
2026-05-04 18:33 59.60814 17.89095 1725 ft 180 kts 235°
2026-05-04 18:33 59.60067 17.86931 2087 ft 199 kts 243°
2026-05-04 18:33 59.59368 17.84529 2816 ft 204 kts 244°
2026-05-04 18:33 59.58657 17.82065 3600 ft 208 kts 245°
2026-05-04 18:34 59.57987 17.79464 4130 ft 226 kts 247°
2026-05-04 18:34 59.57273 17.76546 4685 ft 242 kts 247°
2026-05-04 18:34 59.56447 17.73577 4946 ft 251 kts 236°
2026-05-04 18:34 59.55285 17.70990 4999 ft 252 kts 231°
2026-05-04 18:35 59.54082 17.68479 4995 ft 251 kts 231°
2026-05-04 18:35 59.52869 17.65999 5039 ft 253 kts 230°
2026-05-04 18:35 59.51632 17.63486 5804 ft 256 kts 230°
2026-05-04 18:35 59.50389 17.60963 6715 ft 258 kts 230°
2026-05-04 18:36 59.49133 17.58413 7578 ft 260 kts 230°
2026-05-04 18:36 59.47848 17.55794 8154 ft 276 kts 230°
2026-05-04 18:36 59.46460 17.52958 8509 ft 297 kts 230°
2026-05-04 18:36 59.45004 17.49991 9225 ft 305 kts 229°
2026-05-04 18:37 59.43518 17.46978 10009 ft 308 kts 229°
2026-05-04 18:37 59.42022 17.43949 10828 ft 309 kts 229°
2026-05-04 18:37 59.40522 17.40918 11661 ft 310 kts 230°
2026-05-04 18:37 59.39016 17.37883 12519 ft 310 kts 230°
2026-05-04 18:38 59.37507 17.34847 13338 ft 311 kts 230°
2026-05-04 18:38 59.35996 17.31804 14066 ft 313 kts 230°
2026-05-04 18:38 59.34449 17.28683 14469 ft 324 kts 230°
2026-05-04 18:38 59.32871 17.25495 15070 ft 327 kts 231°
2026-05-04 18:39 59.31277 17.22281 15670 ft 331 kts 231°
2026-05-04 18:39 59.29663 17.19034 16256 ft 335 kts 231°
2026-05-04 18:39 59.28031 17.15761 16888 ft 338 kts 231°
2026-05-04 18:39 59.26379 17.12466 17525 ft 341 kts 231°
2026-05-04 18:40 59.24710 17.09153 18142 ft 343 kts 231°
2026-05-04 18:40 59.23033 17.05819 18694 ft 346 kts 231°
2026-05-04 18:40 59.21915 17.03595 19065 ft 347 kts 231°
2026-05-04 18:40 59.20165 17.00302 19625 ft 353 kts 226°
2026-05-04 18:41 59.18275 16.97231 20185 ft 355 kts 226°
2026-05-04 18:41 59.16370 16.94129 20747 ft 357 kts 226°
2026-05-04 18:41 59.14454 16.91008 21285 ft 360 kts 226°
2026-05-04 18:41 59.12528 16.87874 21810 ft 362 kts 226°
2026-05-04 18:42 59.10588 16.84723 22315 ft 365 kts 226°
2026-05-04 18:42 59.08632 16.81559 22879 ft 366 kts 226°
2026-05-04 18:42 59.06668 16.78390 23320 ft 368 kts 226°
2026-05-04 18:42 59.04690 16.75194 23672 ft 372 kts 226°
2026-05-04 18:43 59.02694 16.71973 24055 ft 374 kts 226°
2026-05-04 18:43 59.00685 16.68738 24427 ft 376 kts 226°
2026-05-04 18:43 58.98661 16.65488 24778 ft 379 kts 226°
2026-05-04 18:43 58.96623 16.62226 25146 ft 381 kts 226°
2026-05-04 18:44 58.94572 16.58959 25510 ft 383 kts 226°
2026-05-04 18:44 58.93205 16.56787 25745 ft 384 kts 226°
2026-05-04 18:44 58.90436 16.52375 26213 ft 387 kts 225°
2026-05-04 18:44 58.88354 16.49052 26563 ft 389 kts 225°
2026-05-04 18:45 58.86262 16.45717 26895 ft 391 kts 225°
2026-05-04 18:45 58.84150 16.42349 27062 ft 397 kts 225°
2026-05-04 18:45 58.82005 16.38934 27138 ft 403 kts 225°
2026-05-04 18:45 58.79821 16.35473 27273 ft 408 kts 225°
2026-05-04 18:46 58.77613 16.31990 27412 ft 413 kts 224°
2026-05-04 18:46 58.75372 16.28471 27577 ft 417 kts 224°
2026-05-04 18:46 58.73118 16.24943 27786 ft 419 kts 224°
2026-05-04 18:46 58.70856 16.21407 27990 ft 420 kts 224°
2026-05-04 18:47 58.68616 16.17901 28184 ft 421 kts 224°
2026-05-04 18:47 58.66305 16.14281 28374 ft 422 kts 224°
2026-05-04 18:47 58.64065 16.10777 28723 ft 419 kts 224°
2026-05-04 18:47 58.61787 16.07223 29213 ft 415 kts 224°
2026-05-04 18:48 58.59554 16.03745 29575 ft 413 kts 224°
2026-05-04 18:48 58.57356 16.00318 29877 ft 413 kts 224°
2026-05-04 18:48 58.55130 15.96850 30151 ft 413 kts 224°
2026-05-04 18:48 58.52898 15.93379 30431 ft 412 kts 224°
2026-05-04 18:49 58.50669 15.89926 30718 ft 412 kts 224°
2026-05-04 18:49 58.48441 15.86491 31007 ft 411 kts 224°
2026-05-04 18:49 58.46214 15.83062 31292 ft 411 kts 224°
2026-05-04 18:49 58.43982 15.79635 31579 ft 410 kts 224°
2026-05-04 18:50 58.41765 15.76231 31873 ft 410 kts 224°
2026-05-04 18:50 58.39549 15.72823 32155 ft 409 kts 224°
2026-05-04 18:50 58.37330 15.69418 32442 ft 409 kts 224°
2026-05-04 18:50 58.35117 15.66030 32696 ft 408 kts 224°
2026-05-04 18:51 58.32895 15.62634 32928 ft 410 kts 224°
2026-05-04 18:51 58.30673 15.59244 33192 ft 410 kts 224°
2026-05-04 18:51 58.28450 15.55856 33470 ft 410 kts 224°
2026-05-04 18:51 58.26227 15.52471 33752 ft 409 kts 224°
2026-05-04 18:52 58.24002 15.49098 33988 ft 409 kts 224°
2026-05-04 18:52 58.21772 15.45733 34215 ft 410 kts 224°
2026-05-04 18:52 58.19543 15.42370 34443 ft 410 kts 224°
2026-05-04 18:52 58.17309 15.39002 34648 ft 410 kts 224°
2026-05-04 18:53 58.15075 15.35638 34853 ft 411 kts 224°
2026-05-04 18:53 58.12838 15.32267 35043 ft 411 kts 223°
2026-05-04 18:53 58.10470 15.29188 35207 ft 417 kts 214°
2026-05-04 18:53 58.07797 15.26918 35369 ft 426 kts 204°
2026-05-04 18:54 58.04896 15.25554 35531 ft 433 kts 197°
2026-05-04 18:54 58.01938 15.24461 35703 ft 433 kts 197°
2026-05-04 18:54 57.99018 15.23371 35806 ft 434 kts 197°
2026-05-04 18:55 57.93080 15.21131 35822 ft 435 kts 197°
2026-05-04 18:55 57.84157 15.17771 35830 ft 436 kts 197°
2026-05-04 18:56 57.78213 15.15554 35832 ft 436 kts 197°
2026-05-04 18:56 57.72266 15.13339 35833 ft 436 kts 197°
2026-05-04 18:57 57.66316 15.11120 35847 ft 436 kts 197°
2026-05-04 18:57 57.60362 15.08929 35850 ft 436 kts 197°
2026-05-04 18:58 57.54409 15.06747 35826 ft 436 kts 197°
2026-05-04 18:58 57.48461 15.04558 35836 ft 435 kts 197°
2026-05-04 18:59 57.42517 15.02379 35845 ft 435 kts 197°
2026-05-04 18:59 57.36571 15.00213 35849 ft 435 kts 197°
2026-05-04 19:00 57.30625 14.98042 35826 ft 435 kts 197°
2026-05-04 19:00 57.24674 14.95893 35845 ft 436 kts 197°
2026-05-04 19:01 57.18765 14.93763 35853 ft 436 kts 197°
2026-05-04 19:01 57.12810 14.91612 35863 ft 436 kts 197°
2026-05-04 19:02 57.06851 14.89471 35868 ft 437 kts 197°
2026-05-04 19:02 57.00880 14.87340 35858 ft 437 kts 196°
2026-05-04 19:03 56.94909 14.85213 35866 ft 438 kts 196°
2026-05-04 19:03 56.88922 14.83091 35874 ft 438 kts 196°
2026-05-04 19:04 56.82931 14.80980 35879 ft 439 kts 196°
2026-05-04 19:04 56.76940 14.78848 35866 ft 439 kts 195°
2026-05-04 19:05 56.70947 14.76729 35876 ft 439 kts 195°
2026-05-04 19:05 56.64942 14.74625 35890 ft 439 kts 195°
2026-05-04 19:06 56.58935 14.72524 35907 ft 440 kts 195°
2026-05-04 19:06 56.52923 14.70441 35914 ft 440 kts 195°
2026-05-04 19:07 56.46905 14.68357 35902 ft 440 kts 195°
2026-05-04 19:07 56.40889 14.66276 35907 ft 440 kts 195°
2026-05-04 19:08 56.34876 14.64193 35918 ft 440 kts 195°
2026-05-04 19:08 56.28854 14.62119 35927 ft 440 kts 195°
2026-05-04 19:09 56.22841 14.60064 35907 ft 440 kts 195°
2026-05-04 19:09 56.16818 14.58018 35922 ft 440 kts 195°
2026-05-04 19:10 56.10846 14.55984 35934 ft 440 kts 195°
2026-05-04 19:10 56.04838 14.53931 35940 ft 439 kts 195°
2026-05-04 19:11 55.98827 14.51891 35940 ft 439 kts 195°
2026-05-04 19:11 55.92826 14.49869 35932 ft 438 kts 195°
2026-05-04 19:12 55.83840 14.46846 35944 ft 438 kts 195°
2026-05-04 19:13 55.77851 14.44838 35948 ft 438 kts 195°
2026-05-04 19:13 55.71861 14.42841 35928 ft 438 kts 195°
2026-05-04 19:14 55.65878 14.40853 35956 ft 437 kts 195°
2026-05-04 19:14 55.59909 14.38889 35961 ft 436 kts 195°
2026-05-04 19:15 55.53955 14.36918 35966 ft 435 kts 196°
2026-05-04 19:15 55.48006 14.34951 35965 ft 435 kts 195°
2026-05-04 19:16 55.42062 14.32997 35959 ft 433 kts 196°
2026-05-04 19:16 55.36145 14.31063 35965 ft 432 kts 196°
2026-05-04 19:17 55.30236 14.29131 35967 ft 432 kts 196°
2026-05-04 19:17 55.24331 14.27206 35971 ft 432 kts 196°
2026-05-04 19:18 55.18429 14.25287 35967 ft 431 kts 196°
2026-05-04 19:18 55.12527 14.23373 35967 ft 431 kts 196°
2026-05-04 19:19 55.06621 14.21464 35971 ft 432 kts 196°
2026-05-04 19:19 55.00756 14.19577 35974 ft 432 kts 196°
2026-05-04 19:20 54.94848 14.17680 35948 ft 432 kts 196°
2026-05-04 19:20 54.88950 14.15768 35968 ft 430 kts 197°
2026-05-04 19:21 54.83099 14.13639 35977 ft 429 kts 198°
2026-05-04 19:21 54.77266 14.11443 35978 ft 429 kts 198°
2026-05-04 19:22 54.71424 14.09300 35987 ft 429 kts 197°
2026-05-04 19:22 54.65578 14.07199 35963 ft 429 kts 197°
2026-05-04 19:23 54.59736 14.05115 35975 ft 429 kts 197°
2026-05-04 19:23 54.53894 14.03032 35980 ft 429 kts 197°
2026-05-04 19:24 54.48088 14.00952 35983 ft 429 kts 197°
2026-05-04 19:24 54.42213 13.98854 35967 ft 428 kts 197°
2026-05-04 19:25 54.36418 13.96787 35981 ft 428 kts 197°
2026-05-04 19:25 54.30583 13.94721 35989 ft 428 kts 197°
2026-05-04 19:26 54.24745 13.92664 35993 ft 428 kts 197°
2026-05-04 19:26 54.18913 13.90606 35758 ft 428 kts 197°
2026-05-04 19:27 54.13088 13.88565 35655 ft 429 kts 197°
2026-05-04 19:27 54.10138 13.87525 34637 ft 437 kts 198°
2026-05-04 19:27 54.08162 13.86831 33986 ft 440 kts 198°
2026-05-04 19:27 54.05163 13.85784 33035 ft 439 kts 198°
2026-05-04 19:28 54.02171 13.84745 32082 ft 438 kts 198°
2026-05-04 19:28 53.99176 13.83707 31022 ft 440 kts 198°
2026-05-04 19:28 53.96181 13.82669 29820 ft 436 kts 198°
2026-05-04 19:28 53.93244 13.81656 28502 ft 426 kts 198°
2026-05-04 19:29 53.90367 13.80662 27410 ft 416 kts 198°
2026-05-04 19:29 53.87592 13.79709 26852 ft 399 kts 198°
2026-05-04 19:29 53.84897 13.78778 26286 ft 393 kts 198°
2026-05-04 19:29 53.82233 13.77853 25725 ft 389 kts 198°
2026-05-04 19:30 53.79595 13.76934 25171 ft 386 kts 197°
2026-05-04 19:30 53.76975 13.76025 24625 ft 383 kts 197°
2026-05-04 19:30 53.74374 13.75124 24093 ft 380 kts 197°
2026-05-04 19:30 53.71795 13.74235 23565 ft 378 kts 197°
2026-05-04 19:31 53.69223 13.73371 22991 ft 376 kts 194°
2026-05-04 19:31 53.66624 13.72941 22505 ft 375 kts 188°
2026-05-04 19:31 53.64032 13.72682 22045 ft 371 kts 188°
2026-05-04 19:31 53.61469 13.72422 21566 ft 367 kts 188°
2026-05-04 19:32 53.58931 13.72163 21154 ft 363 kts 188°
2026-05-04 19:32 53.56425 13.71908 20717 ft 359 kts 188°
2026-05-04 19:32 53.53944 13.71656 20278 ft 356 kts 188°
2026-05-04 19:32 53.51483 13.71405 19848 ft 352 kts 188°
2026-05-04 19:33 53.49044 13.71155 19420 ft 349 kts 188°
2026-05-04 19:33 53.46655 13.70907 18991 ft 347 kts 188°
2026-05-04 19:33 53.44249 13.70663 18551 ft 345 kts 187°
2026-05-04 19:33 53.41857 13.70423 18088 ft 344 kts 187°
2026-05-04 19:34 53.39477 13.70181 17627 ft 341 kts 187°
2026-05-04 19:34 53.37120 13.69939 17180 ft 338 kts 187°
2026-05-04 19:34 53.34777 13.69700 16734 ft 336 kts 187°
2026-05-04 19:34 53.32443 13.69464 16290 ft 335 kts 187°
2026-05-04 19:35 53.30123 13.69232 15850 ft 334 kts 187°
2026-05-04 19:35 53.27810 13.69002 15420 ft 332 kts 187°
2026-05-04 19:35 53.25502 13.68770 14953 ft 332 kts 187°
2026-05-04 19:35 53.23200 13.68539 14519 ft 331 kts 187°
2026-05-04 19:36 53.20905 13.68306 14081 ft 330 kts 187°
2026-05-04 19:36 53.18611 13.68076 13616 ft 330 kts 186°
2026-05-04 19:36 53.16327 13.67853 13143 ft 328 kts 186°
2026-05-04 19:36 53.14056 13.67630 12696 ft 326 kts 186°
2026-05-04 19:37 53.11801 13.67403 12240 ft 324 kts 187°
2026-05-04 19:37 53.09559 13.67178 11784 ft 322 kts 187°
2026-05-04 19:37 53.07328 13.66954 11324 ft 320 kts 186°
2026-05-04 19:37 53.05108 13.66732 10856 ft 319 kts 186°
2026-05-04 19:38 53.02901 13.66515 10514 ft 314 kts 187°
2026-05-04 19:38 53.00764 13.66307 10391 ft 302 kts 187°
2026-05-04 19:38 52.98705 13.66104 10257 ft 291 kts 187°
2026-05-04 19:38 52.96709 13.65904 10040 ft 284 kts 187°
2026-05-04 19:39 52.94802 13.65384 9842 ft 278 kts 201°
2026-05-04 19:39 52.93084 13.63990 9713 ft 275 kts 217°
2026-05-04 19:39 52.91694 13.61856 9577 ft 272 kts 233°
2026-05-04 19:39 52.90698 13.59206 9451 ft 271 kts 242°
2026-05-04 19:40 52.89794 13.56464 9317 ft 271 kts 242°
2026-05-04 19:40 52.88889 13.53733 9186 ft 271 kts 242°
2026-05-04 19:40 52.87978 13.51003 9059 ft 270 kts 242°
2026-05-04 19:40 52.87069 13.48288 8918 ft 270 kts 242°
2026-05-04 19:41 52.86160 13.45569 8795 ft 269 kts 242°
2026-05-04 19:41 52.85254 13.42859 8666 ft 269 kts 242°
2026-05-04 19:41 52.84349 13.40152 8535 ft 269 kts 242°
2026-05-04 19:41 52.83445 13.37449 8408 ft 268 kts 242°
2026-05-04 19:42 52.82541 13.34751 8284 ft 268 kts 242°
2026-05-04 19:42 52.81638 13.32061 8156 ft 267 kts 241°
2026-05-04 19:42 52.80734 13.29373 8030 ft 267 kts 241°
2026-05-04 19:42 52.79831 13.26694 7942 ft 266 kts 241°
2026-05-04 19:43 52.78930 13.24020 7959 ft 267 kts 242°
2026-05-04 19:43 52.78029 13.21338 7958 ft 267 kts 242°
2026-05-04 19:43 52.77127 13.18656 7960 ft 267 kts 241°
2026-05-04 19:43 52.76225 13.15986 7957 ft 266 kts 242°
2026-05-04 19:44 52.75321 13.13320 7956 ft 266 kts 241°
2026-05-04 19:44 52.74419 13.10661 7956 ft 266 kts 241°
2026-05-04 19:44 52.73517 13.08002 7956 ft 266 kts 241°
2026-05-04 19:44 52.72615 13.05342 7956 ft 266 kts 242°
2026-05-04 19:45 52.71713 13.02680 7956 ft 266 kts 241°
2026-05-04 19:45 52.70810 13.00019 7956 ft 266 kts 241°
2026-05-04 19:45 52.69906 12.97360 7956 ft 266 kts 241°
2026-05-04 19:45 52.69002 12.94706 7956 ft 266 kts 241°
2026-05-04 19:46 52.68096 12.92049 7960 ft 266 kts 241°
2026-05-04 19:46 52.67188 12.89395 7958 ft 266 kts 241°
2026-05-04 19:46 52.66279 12.86746 7959 ft 266 kts 241°
2026-05-04 19:46 52.65381 12.84131 7958 ft 266 kts 241°
2026-05-04 19:47 52.64474 12.81480 7955 ft 266 kts 241°
2026-05-04 19:47 52.63558 12.78837 7955 ft 266 kts 238°
2026-05-04 19:47 52.62262 12.76683 7955 ft 269 kts 213°
2026-05-04 19:47 52.60495 12.75677 7955 ft 274 kts 187°
2026-05-04 19:48 52.58598 12.76114 7956 ft 281 kts 160°
2026-05-04 19:48 52.56928 12.77838 7958 ft 286 kts 146°
2026-05-04 19:48 52.55330 12.79783 7948 ft 286 kts 146°
2026-05-04 19:48 52.53736 12.81731 7950 ft 285 kts 146°
2026-05-04 19:49 52.52140 12.83676 7949 ft 285 kts 146°
2026-05-04 19:49 52.50545 12.85616 7949 ft 285 kts 146°
2026-05-04 19:49 52.48951 12.87550 7880 ft 285 kts 146°
2026-05-04 19:49 52.47356 12.89477 7806 ft 285 kts 146°
2026-05-04 19:50 52.45763 12.91400 7736 ft 284 kts 146°
2026-05-04 19:50 52.44169 12.93324 7659 ft 284 kts 146°
2026-05-04 19:50 52.42579 12.95237 7587 ft 284 kts 146°
2026-05-04 19:50 52.41000 12.97134 7499 ft 276 kts 146°
2026-05-04 19:51 52.39487 12.98959 7378 ft 264 kts 146°
2026-05-04 19:51 52.37954 13.00454 7211 ft 251 kts 161°
2026-05-04 19:51 52.36302 13.01121 7027 ft 240 kts 178°
2026-05-04 19:51 52.34688 13.00844 6904 ft 236 kts 203°
2026-05-04 19:52 52.33363 12.99365 6776 ft 231 kts 233°
2026-05-04 19:52 52.32706 12.97008 6668 ft 230 kts 261°
2026-05-04 19:52 52.32489 12.94409 6547 ft 231 kts 262°
2026-05-04 19:52 52.32105 12.91871 6426 ft 231 kts 249°
2026-05-04 19:53 52.31511 12.89436 6302 ft 230 kts 249°
2026-05-04 19:53 52.30918 12.87002 6174 ft 230 kts 249°
2026-05-04 19:53 52.30326 12.84568 6051 ft 231 kts 248°
2026-05-04 19:53 52.29733 12.82128 5945 ft 231 kts 248°
2026-05-04 19:54 52.29139 12.79698 5948 ft 231 kts 248°
2026-05-04 19:54 52.28541 12.77260 5953 ft 231 kts 248°
2026-05-04 19:54 52.27943 12.74822 5954 ft 231 kts 248°
2026-05-04 19:54 52.27345 12.72382 5956 ft 231 kts 248°
2026-05-04 19:55 52.26747 12.69945 5953 ft 231 kts 248°
2026-05-04 19:55 52.26149 12.67508 5955 ft 231 kts 248°
2026-05-04 19:55 52.25304 12.65310 5952 ft 231 kts 221°
2026-05-04 19:55 52.23869 12.64181 5952 ft 233 kts 189°
2026-05-04 19:56 52.22269 12.64531 5956 ft 238 kts 159°
2026-05-04 19:56 52.20753 12.65652 5953 ft 239 kts 159°
2026-05-04 19:56 52.19230 12.66758 5953 ft 241 kts 151°
2026-05-04 19:56 52.17975 12.68560 5949 ft 244 kts 128°
2026-05-04 19:57 52.17251 12.71069 5857 ft 248 kts 103°
2026-05-04 19:57 52.17150 12.73863 5709 ft 248 kts 84°
2026-05-04 19:57 52.17561 12.76587 5567 ft 248 kts 68°
2026-05-04 19:57 52.18214 12.79188 5424 ft 248 kts 68°
2026-05-04 19:58 52.18858 12.81790 5290 ft 247 kts 68°
2026-05-04 19:58 52.19495 12.84383 5151 ft 246 kts 69°
2026-05-04 19:58 52.20126 12.86970 5013 ft 245 kts 69°
2026-05-04 19:58 52.20754 12.89544 4876 ft 244 kts 69°
2026-05-04 19:59 52.21371 12.92078 4733 ft 243 kts 68°
2026-05-04 19:59 52.21992 12.94628 4599 ft 241 kts 68°
2026-05-04 19:59 52.22609 12.97168 4464 ft 241 kts 68°
2026-05-04 19:59 52.23218 12.99741 4327 ft 246 kts 69°
2026-05-04 20:00 52.23829 13.02317 4130 ft 243 kts 69°
2026-05-04 20:00 52.24452 13.04891 4034 ft 242 kts 68°
2026-05-04 20:00 52.25075 13.07454 3917 ft 243 kts 68°
2026-05-04 20:00 52.25693 13.10005 3765 ft 244 kts 68°
2026-05-04 20:01 52.26310 13.12552 3625 ft 237 kts 68°
2026-05-04 20:01 52.26902 13.14998 3522 ft 226 kts 68°
2026-05-04 20:01 52.27466 13.17337 3403 ft 217 kts 68°
2026-05-04 20:01 52.28007 13.19577 3314 ft 206 kts 68°
2026-05-04 20:02 52.28514 13.21683 3204 ft 192 kts 68°
2026-05-04 20:02 52.28988 13.23649 3074 ft 181 kts 68°
2026-05-04 20:02 52.29441 13.25531 2879 ft 176 kts 67°
2026-05-04 20:02 52.29883 13.27370 2654 ft 171 kts 67°
2026-05-04 20:03 52.30307 13.29135 2441 ft 164 kts 67°
2026-05-04 20:03 52.30708 13.30809 2242 ft 151 kts 67°
2026-05-04 20:03 52.31081 13.32363 2048 ft 144 kts 66°
2026-05-04 20:03 52.31442 13.33869 1855 ft 141 kts 66°
2026-05-04 20:04 52.31797 13.35352 1679 ft 139 kts 66°
2026-05-04 20:04 52.32155 13.36825 1467 ft 139 kts 66°
2026-05-04 20:04 52.32505 13.38302 1263 ft 138 kts 67°
2026-05-04 20:04 52.32851 13.39765 1058 ft 138 kts 66°
2026-05-04 20:05 52.33200 13.41216 908 ft 137 kts 67°
2026-05-04 20:05 52.33550 13.42665 745 ft 137 kts 67°
2026-05-04 20:05 52.33883 13.44100 588 ft 137 kts 66°
2026-05-04 20:05 52.34243 13.45558 396 ft 137 kts 68°
2026-05-04 20:06 52.34582 13.46996 232 ft 135 kts 68°
2026-05-04 20:06 52.34901 13.48343 163 ft 118 kts 67°
2026-05-04 20:06 52.35156 13.49416 156 ft 85 kts 68°
2026-05-04 20:06 52.35333 13.50167 154 ft 54 kts 69°
2026-05-04 20:07 52.35436 13.50475 156 ft 20 kts 52°
2026-05-04 20:07 52.35511 13.50591 157 ft 7 kts 37°
2026-05-04 20:07 52.35542 13.50634 158 ft 5 kts 41°
2026-05-04 20:07 52.35571 13.50674 158 ft 8 kts 40°
2026-05-04 20:08 52.35612 13.50731 158 ft 7 kts 40°
2026-05-04 20:08 52.35647 13.50777 158 ft 6 kts 38°
2026-05-04 20:08 52.35679 13.50817 158 ft 6 kts 34°
2026-05-04 20:08 52.35746 13.50836 158 ft 12 kts 350°
2026-05-04 20:09 52.35810 13.50800 158 ft 9 kts 336°
2026-05-04 20:09 52.35863 13.50768 158 ft 7 kts 341°
2026-05-04 20:09 52.35907 13.50742 158 ft 6 kts 340°
2026-05-04 20:09 52.35944 13.50719 158 ft 5 kts 338°
2026-05-04 20:10 52.35993 13.50689 159 ft 7 kts 339°
2026-05-04 20:10 52.36033 13.50668 159 ft 5 kts 352°
2026-05-04 20:10 52.36066 13.50683 159 ft 4 kts 29°
2026-05-04 20:10 52.36082 13.50717 159 ft 3 kts 67°
2026-05-04 20:11 52.36086 13.50747 159 ft 3 kts 80°
2026-05-04 20:11 52.36091 13.50780 159 ft 2 kts 66°
2026-05-04 20:11 52.36096 13.50796 159 ft 0 kts 67°